Teterboro, NJ

6:11 AM EST on December 03, 2016 (GMT -0500)
Teterboro

Weather History for KTEB - December, 2013

Change the Weather History Date:

Friday, December 6, 2013

  Actual Average Record
Temperature  
Mean Temperature 48 °F -  
Max Temperature 57 °F 45 °F 73 °F (2001)
Min Temperature 37 °F 31 °F 21 °F (2002)
Degree Days  
Heating Degree Days 17    
Moisture  
Dew Point 45 °F    
Average Humidity 85    
Maximum Humidity 94    
Minimum Humidity 74    
Precipitation  
Precipitation 0.92 in - - ()
Sea Level Pressure  
Sea Level Pressure 30.00 in    
Wind  
Wind Speed 6 mph (North)    
Max Wind Speed 17 mph    
Max Gust Speed 23 mph    
Visibility 5 miles    
Events Fog , Rain    
Averages and records for this station are not official NWS values.
T = Trace of Precipitation, MM = Missing Value Source: NWS Daily Summary

Daily Weather History Graph

Daily Weather History Graph

Search for Another Location

Airport or City:

Trip Planner

Search our weather history database for the weather conditions in past years. The results will help you decide how hot, cold, wet, or windy it might be!

Date:

Astronomy

Dec. 06, 2013 Rise Set
Actual Time 7:06 AM EST 4:28 PM EST
Civil Twilight 6:35 AM EST 4:59 PM EST
Nautical Twilight 6:01 AM EST 5:33 PM EST
Astronomical Twilight 5:28 AM EST 6:06 PM EST
Moon 10:09 AM EST (12/6) 8:58 PM EST (12/6)
Length of Visible Light 10h 23m
Length of Day
9h 21m
Waxing Crescent, 19% of the Moon is Illuminated
Dec 6
Waxing Crescent
Dec 9
First Quarter
Dec 17
Full
Dec 25
Last Quarter
Jan 1
New

Hourly Weather History & Observations

Time (EST) Temp. Windchill Dew Point Humidity Pressure Visibility Wind Dir Wind Speed Gust Speed Precip Events Conditions
12:48 AM 57.2 °F - 53.6 °F 88% 29.92 in 2.0 mi South 6.9 mph - 0.00 in   Light Drizzle
12:51 AM 57.0 °F - 54.0 °F 89% 29.92 in 2.0 mi South 4.6 mph - 0.00 in   Light Drizzle
1:16 AM 57.2 °F - 53.6 °F 88% 29.91 in 1.5 mi South 3.5 mph - 0.00 in   Light Drizzle
1:35 AM 57.2 °F - 53.6 °F 88% 29.90 in 1.2 mi South 3.5 mph - 0.00 in   Light Drizzle
1:51 AM 57.0 °F - 54.0 °F 89% 29.91 in 0.8 mi South 5.8 mph - 0.00 in   Light Drizzle
2:21 AM 55.4 °F - 53.6 °F 94% 29.89 in 0.2 mi South 4.6 mph - 0.00 in Fog Light Drizzle
2:30 AM 55.4 °F - 53.6 °F 94% 29.88 in 0.5 mi South 4.6 mph - 0.00 in Fog , Rain Light Rain
2:51 AM 55.9 °F - 54.0 °F 93% 29.88 in 0.2 mi Calm Calm - 0.00 in Fog Light Drizzle
3:22 AM 55.4 °F - 53.6 °F 94% 29.88 in 0.5 mi Calm Calm - 0.01 in Fog Light Drizzle
3:34 AM 55.4 °F - 53.6 °F 94% 29.88 in 0.2 mi Calm Calm - 0.01 in Fog Light Drizzle
3:48 AM 55.4 °F - 53.6 °F 94% 29.87 in 0.5 mi Calm Calm - 0.01 in Fog Light Drizzle
3:51 AM 55.9 °F - 53.1 °F 90% 29.87 in 0.2 mi Calm Calm - 0.01 in Fog Light Drizzle
4:51 AM 55.9 °F - 54.0 °F 93% 29.87 in 0.2 mi Calm Calm - 0.00 in Fog Light Drizzle
5:51 AM 55.9 °F - 54.0 °F 93% 29.88 in 0.2 mi Calm Calm - 0.00 in Fog Light Drizzle
6:05 AM 57.2 °F - 53.6 °F 88% 29.90 in 0.8 mi NW 11.5 mph 19.6 mph 0.00 in   Light Drizzle
6:10 AM 57.2 °F - 55.4 °F 94% 29.91 in 2.0 mi NW 12.7 mph - 0.01 in Rain Rain
6:28 AM 53.6 °F - 50.0 °F 88% 29.92 in 2.0 mi NW 17.3 mph 23.0 mph 0.02 in Rain Light Rain
6:33 AM 53.6 °F - 48.2 °F 82% 29.91 in 3.0 mi NNW 12.7 mph 23.0 mph 0.03 in   Light Drizzle
6:51 AM 53.1 °F - 48.9 °F 86% 29.92 in 10.0 mi North 4.6 mph - 0.03 in   Overcast
7:51 AM 53.1 °F - 46.9 °F 80% 29.96 in 10.0 mi North 10.4 mph - 0.00 in Rain Light Rain
8:19 AM 51.8 °F - 46.4 °F 82% 29.97 in 10.0 mi North 9.2 mph - 0.02 in Rain Light Rain
8:51 AM 51.1 °F - 46.0 °F 83% 29.99 in 10.0 mi North 8.1 mph - 0.02 in Rain Light Rain
9:28 AM 51.8 °F - 46.4 °F 82% 30.01 in 10.0 mi North 3.5 mph - 0.01 in Rain Light Rain
9:51 AM 51.1 °F - 45.0 °F 80% 30.01 in 10.0 mi North 5.8 mph - 0.01 in   Overcast
10:05 AM 50.0 °F - 44.6 °F 82% 30.02 in 10.0 mi North 8.1 mph - 0.00 in Rain Light Rain
10:43 AM 48.2 °F - 42.8 °F 82% 30.02 in 4.0 mi North 9.2 mph - 0.02 in Rain Rain
10:51 AM 48.9 °F - 43.0 °F 80% 30.02 in 3.0 mi Variable 4.6 mph - 0.05 in Rain Heavy Rain
11:22 AM 46.4 °F 42.4 °F 42.8 °F 87% 30.02 in 7.0 mi NE 8.1 mph - 0.04 in Rain Light Rain
11:51 AM 46.9 °F - 42.1 °F 83% 30.03 in 3.0 mi NNE 6.9 mph - 0.05 in Rain Rain
12:25 PM 46.4 °F 43.5 °F 42.8 °F 87% 30.03 in 4.0 mi North 5.8 mph - 0.01 in Rain Light Rain
12:51 PM 46.0 °F 41.0 °F 42.1 °F 86% 30.03 in 3.0 mi NNW 10.4 mph - 0.02 in Rain Light Rain
1:01 PM 46.4 °F 42.4 °F 41.0 °F 81% 30.03 in 9.0 mi NNW 8.1 mph - 0.00 in Rain Light Rain
1:24 PM 46.4 °F 42.4 °F 39.2 °F 76% 30.03 in 5.0 mi NNW 8.1 mph - 0.00 in   Haze
1:31 PM 46.4 °F 42.9 °F 39.2 °F 76% 30.03 in 5.0 mi NNW 6.9 mph - 0.00 in   Haze
1:51 PM 46.9 °F - 39.0 °F 74% 30.01 in 5.0 mi North 9.2 mph - 0.00 in Rain Light Rain
2:27 PM 46.4 °F 43.5 °F 39.2 °F 76% 30.03 in 5.0 mi North 5.8 mph - 0.01 in Rain Light Rain
2:51 PM 46.9 °F - 41.0 °F 80% 30.02 in 5.0 mi North 4.6 mph - 0.02 in Rain Light Rain
3:51 PM 46.0 °F 43.1 °F 42.1 °F 86% 30.03 in 10.0 mi NNE 5.8 mph - 0.02 in Rain Light Rain
4:51 PM 46.0 °F 43.9 °F 41.0 °F 83% 30.06 in 10.0 mi NNE 4.6 mph - 0.01 in Rain Light Rain
5:41 PM 46.4 °F 44.3 °F 41.0 °F 81% 30.07 in 7.0 mi NNE 4.6 mph - 0.00 in Rain Light Rain
5:51 PM 46.0 °F 44.8 °F 41.0 °F 83% 30.07 in 7.0 mi North 3.5 mph - 0.02 in Rain Light Rain
6:11 PM 46.4 °F - 41.0 °F 81% 30.09 in 10.0 mi Calm Calm - 0.00 in Rain Light Rain
6:51 PM 45.0 °F 40.6 °F 39.0 °F 80% 30.10 in 10.0 mi NNE 8.1 mph - 0.03 in Rain Light Rain
6:58 PM 44.6 °F 40.7 °F 39.2 °F 81% 30.10 in 4.0 mi NNE 6.9 mph - 0.01 in Rain Rain
7:46 PM 42.8 °F 37.5 °F 37.4 °F 81% 30.09 in 4.0 mi NE 9.2 mph - 0.16 in Rain Rain
7:51 PM 43.0 °F 38.8 °F 37.9 °F 82% 30.10 in 3.0 mi NNE 6.9 mph - 0.18 in Rain Heavy Rain
8:13 PM 42.8 °F 38.6 °F 37.4 °F 81% 30.13 in 2.5 mi North 6.9 mph - 0.11 in Rain Heavy Rain
8:27 PM 42.8 °F 37.5 °F 37.4 °F 81% 30.14 in 3.0 mi North 9.2 mph - 0.17 in Rain Heavy Rain
8:51 PM 41.0 °F 35.2 °F 37.0 °F 86% 30.14 in 4.0 mi NNE 9.2 mph - 0.23 in Rain Rain
9:51 PM 41.0 °F 35.2 °F 36.0 °F 82% 30.12 in 4.0 mi NNE 9.2 mph - 0.08 in Rain Rain
10:04 PM 41.0 °F 35.8 °F 35.6 °F 81% 30.12 in 6.0 mi North 8.1 mph - 0.01 in Rain Light Rain
10:22 PM 39.2 °F 33.6 °F 33.8 °F 81% 30.13 in 6.0 mi NNE 8.1 mph - 0.02 in Rain Light Rain
10:29 PM 39.2 °F 33.6 °F 33.8 °F 81% 30.13 in 6.0 mi NNE 8.1 mph - 0.02 in Rain Light Rain
10:51 PM 39.0 °F 32.8 °F 33.1 °F 79% 30.12 in 7.0 mi NNE 9.2 mph - 0.04 in Rain Light Rain
11:51 PM 37.9 °F 32.7 °F 33.1 °F 83% 30.14 in 5.0 mi NNE 6.9 mph - 0.10 in Rain Rain